• In Kazakhstan
  • List of Countries
  • For 7 days
  • Water Temperature
  • Satellite Maps
  • Weather Map
  • News
  • Weather Widgets
  • user-avatar
    Login

    Hourly Weather Elbasan

    Today, 19 November, Monday

    Time Temperature Precipitation Wind Pressure Humidity
    00:00 +8°C° 0 mm 1 mps 730 mmHg 86%
    01:00 +8°C° 0 mm 1 mps 730 mmHg 84%
    02:00 +8°C° 0 mm 1 mps 730 mmHg 85%
    03:00 +8°C° 0 mm 1 mps 730 mmHg 85%
    04:00 +7°C° 0 mm 1 mps 730 mmHg 85%
    05:00 +7°C° 0 mm 1 mps 730 mmHg 85%
    06:00 +7°C° 0 mm 1 mps 731 mmHg 84%
    07:00 +7°C° 0 mm 1 mps 731 mmHg 84%
    08:00 +9°C° 0 mm 1 mps 731 mmHg 79%
    09:00 +11°C° 0 mm 1 mps 732 mmHg 74%
    10:00 +13°C° 0 mm 2 mps 732 mmHg 69%
    11:00 +13°C° 0 mm 2 mps 732 mmHg 66%
    12:00 +14°C° 0 mm 2 mps 732 mmHg 64%
    13:00 +15°C° 0 mm 2 mps 732 mmHg 62%
    14:00 +14°C° 0 mm 2 mps 732 mmHg 65%
    15:00 +13°C° 0 mm 2 mps 732 mmHg 68%
    16:00 +13°C° 0 mm 2 mps 732 mmHg 71%
    17:00 +11°C° 0.1 mm 3 mps 732 mmHg 74%
    18:00 +11°C° 0.1 mm 3 mps 732 mmHg 76%
    19:00 +11°C° 0.1 mm 3 mps 732 mmHg 79%
    20:00 +11°C° 0.4 mm 3 mps 732 mmHg 80%
    21:00 +11°C° 0.4 mm 4 mps 732 mmHg 81%
    22:00 +11°C° 0.4 mm 4 mps 732 mmHg 83%
    23:00 +11°C° 0.7 mm 4 mps 732 mmHg 84%

    Tomorrow, 20 November, Tuesday

    Time Temperature Precipitation Wind Pressure Humidity
    00:00 +11°C° 0.7 mm 4 mps 732 mmHg 85%
    01:00 +11°C° 0.7 mm 4 mps 732 mmHg 85%
    02:00 +11°C° 2.1 mm 4 mps 732 mmHg 86%
    03:00 +11°C° 2.1 mm 4 mps 732 mmHg 86%
    04:00 +11°C° 2.1 mm 4 mps 732 mmHg 87%
    05:00 +11°C° 2.2 mm 4 mps 732 mmHg 87%
    06:00 +11°C° 2.2 mm 4 mps 732 mmHg 87%
    07:00 +12°C° 2.2 mm 4 mps 732 mmHg 87%
    08:00 +12°C° 1.6 mm 4 mps 732 mmHg 86%
    09:00 +12°C° 1.6 mm 4 mps 732 mmHg 85%
    10:00 +13°C° 1.6 mm 4 mps 732 mmHg 84%
    11:00 +13°C° 1.4 mm 4 mps 732 mmHg 85%
    12:00 +13°C° 1.4 mm 4 mps 732 mmHg 85%
    13:00 +13°C° 1.4 mm 4 mps 731 mmHg 86%
    14:00 +13°C° 0.8 mm 4 mps 731 mmHg 86%
    15:00 +13°C° 0.8 mm 4 mps 731 mmHg 86%
    16:00 +13°C° 0.8 mm 4 mps 731 mmHg 86%
    17:00 +13°C° 0.8 mm 4 mps 731 mmHg 87%
    18:00 +13°C° 0.8 mm 4 mps 731 mmHg 88%
    19:00 +13°C° 0.8 mm 4 mps 731 mmHg 89%
    20:00 +13°C° 0.5 mm 3 mps 731 mmHg 88%
    21:00 +13°C° 0.5 mm 3 mps 731 mmHg 88%
    22:00 +13°C° 0.5 mm 3 mps 731 mmHg 88%
    23:00 +13°C° 0.4 mm 3 mps 730 mmHg 88%

    Day after tomorrow, 21 November, Wednesday

    Time Temperature Precipitation Wind Pressure Humidity
    00:00 +12°C° 0.4 mm 3 mps 730 mmHg 88%
    01:00 +12°C° 0.4 mm 3 mps 729 mmHg 88%
    02:00 +12°C° 2 mm 3 mps 729 mmHg 89%
    03:00 +12°C° 2 mm 3 mps 729 mmHg 90%
    04:00 +12°C° 2 mm 3 mps 729 mmHg 91%
    05:00 +12°C° 0.4 mm 3 mps 729 mmHg 90%
    06:00 +12°C° 0.4 mm 3 mps 729 mmHg 89%
    07:00 +12°C° 0.4 mm 3 mps 729 mmHg 89%
    08:00 +13°C° 0.3 mm 3 mps 730 mmHg 86%
    09:00 +14°C° 0.3 mm 3 mps 730 mmHg 83%
    10:00 +14°C° 0.3 mm 3 mps 730 mmHg 80%
    11:00 +14°C° 1.2 mm 3 mps 731 mmHg 83%
    12:00 +14°C° 1.2 mm 3 mps 731 mmHg 86%
    13:00 +14°C° 1.2 mm 3 mps 731 mmHg 88%
    14:00 +14°C° 1.6 mm 2 mps 731 mmHg 90%
    15:00 +14°C° 1.6 mm 2 mps 731 mmHg 92%
    16:00 +14°C° 1.6 mm 2 mps 732 mmHg 93%
    17:00 +14°C° 0.6 mm 2 mps 732 mmHg 94%
    18:00 +14°C° 0.6 mm 2 mps 733 mmHg 94%
    19:00 +13°C° 0.6 mm 1 mps 733 mmHg 94%
    20:00 +13°C° 0.1 mm 1 mps 734 mmHg 94%
    21:00 +13°C° 0.1 mm 1 mps 734 mmHg 94%
    22:00 +13°C° 0.1 mm 1 mps 734 mmHg 94%
    23:00 +12°C° 0 mm 1 mps 735 mmHg 94%

    22 November, Thursday

    Time Temperature Precipitation Wind Pressure Humidity
    00:00 +12°C° 0 mm 1 mps 735 mmHg 93%
    01:00 +12°C° 0 mm 1 mps 735 mmHg 93%
    02:00 +12°C° 0 mm 1 mps 735 mmHg 92%
    03:00 +11°C° 0 mm 1 mps 735 mmHg 91%
    04:00 +11°C° 0 mm 1 mps 735 mmHg 91%
    05:00 +11°C° 0 mm 1 mps 735 mmHg 90%
    06:00 +11°C° 0 mm 1 mps 736 mmHg 89%
    07:00 +11°C° 0 mm 1 mps 736 mmHg 88%
    08:00 +12°C° 0 mm 1 mps 736 mmHg 82%
    09:00 +14°C° 0 mm 1 mps 737 mmHg 76%
    10:00 +16°C° 0 mm 1 mps 737 mmHg 69%
    11:00 +16°C° 0 mm 1 mps 737 mmHg 69%
    12:00 +16°C° 0 mm 1 mps 737 mmHg 68%
    13:00 +16°C° 0 mm 1 mps 737 mmHg 67%
    14:00 +16°C° 0 mm 1 mps 737 mmHg 71%
    15:00 +15°C° 0 mm 1 mps 737 mmHg 75%
    16:00 +14°C° 0 mm 1 mps 737 mmHg 79%
    17:00 +13°C° 0 mm 1 mps 737 mmHg 82%
    18:00 +12°C° 0 mm 1 mps 738 mmHg 85%
    19:00 +12°C° 0 mm 1 mps 738 mmHg 88%
    20:00 +11°C° 0 mm 1 mps 738 mmHg 88%
    21:00 +11°C° 0 mm 1 mps 739 mmHg 88%
    22:00 +11°C° 0 mm 1 mps 739 mmHg 87%
    23:00 +11°C° 0 mm 1 mps 739 mmHg 87%

    23 November, Friday

    Time Temperature Precipitation Wind Pressure Humidity
    00:00 +11°C° 0 mm 1 mps 739 mmHg 87%
    01:00 +10°C° 0 mm 1 mps 739 mmHg 86%
    02:00 +10°C° 0 mm 1 mps 739 mmHg 86%
    03:00 +10°C° 0 mm 1 mps 740 mmHg 86%
    04:00 +10°C° 0 mm 1 mps 740 mmHg 85%
    05:00 +10°C° 0 mm 1 mps 740 mmHg 85%
    06:00 +10°C° 0 mm 1 mps 740 mmHg 85%
    07:00 +10°C° 0 mm 1 mps 741 mmHg 85%
    08:00 +11°C° 0 mm 1 mps 741 mmHg 79%
    09:00 +13°C° 0 mm 1 mps 741 mmHg 73%
    10:00 +15°C° 0 mm 1 mps 742 mmHg 67%
    11:00 +15°C° 0 mm 1 mps 741 mmHg 64%
    12:00 +15°C° 0 mm 1 mps 741 mmHg 62%
    13:00 +16°C° 0 mm 2 mps 741 mmHg 60%
    14:00 +15°C° 0 mm 2 mps 741 mmHg 63%
    15:00 +14°C° 0 mm 2 mps 741 mmHg 67%
    16:00 +14°C° 0 mm 2 mps 741 mmHg 71%
    17:00 +13°C° 0 mm 2 mps 742 mmHg 73%
    18:00 +12°C° 0 mm 2 mps 742 mmHg 75%
    19:00 +10°C° 0 mm 2 mps 742 mmHg 78%
    20:00 +10°C° 0 mm 2 mps 743 mmHg 79%
    21:00 +9°C° 0 mm 2 mps 743 mmHg 79%
    22:00 +9°C° 0 mm 2 mps 743 mmHg 80%
    23:00 +9°C° 0 mm 2 mps 743 mmHg 81%

    24 November, Saturday

    Time Temperature Precipitation Wind Pressure Humidity
    00:00 +8°C° 0 mm 2 mps 743 mmHg 81%
    01:00 +8°C° 0 mm 2 mps 743 mmHg 81%
    02:00 +8°C° 0 mm 2 mps 743 mmHg 81%
    03:00 +7°C° 0 mm 2 mps 743 mmHg 81%
    04:00 +7°C° 0 mm 2 mps 743 mmHg 81%
    05:00 +7°C° 0 mm 2 mps 743 mmHg 81%
    06:00 +7°C° 0 mm 2 mps 743 mmHg 81%
    07:00 +7°C° 0 mm 2 mps 743 mmHg 81%
    08:00 +9°C° 0 mm 2 mps 743 mmHg 74%
    09:00 +12°C° 0 mm 2 mps 743 mmHg 67%
    10:00 +14°C° 0 mm 1 mps 743 mmHg 60%
    11:00 +14°C° 0 mm 1 mps 743 mmHg 57%
    12:00 +15°C° 0 mm 1 mps 743 mmHg 54%
    13:00 +16°C° 0 mm 1 mps 742 mmHg 51%
    14:00 +15°C° 0 mm 1 mps 742 mmHg 56%
    15:00 +14°C° 0 mm 1 mps 742 mmHg 61%
    16:00 +13°C° 0 mm 1 mps 742 mmHg 65%
    17:00 +12°C° 0 mm 1 mps 742 mmHg 68%
    18:00 +11°C° 0 mm 1 mps 742 mmHg 70%
    19:00 +11°C° 0 mm 1 mps 742 mmHg 72%
    20:00 +10°C° 0 mm 1 mps 742 mmHg 73%
    21:00 +10°C° 0 mm 1 mps 742 mmHg 74%
    22:00 +10°C° 0 mm 1 mps 742 mmHg 75%
    23:00 +9°C° 0 mm 1 mps 742 mmHg 75%
    Show more